Location: Cartignies
(50.0929°N, 3.8447°E)
Time: 13:51:09
(UTC+00:00)

SL-16 R/B - Pass Details

Date: 12 January 2026
Orbit: 985 x 1007 km, 99.8° (Epoch: 16 February)

Event Time Altitude Azimuth Distance (km) Brightness Sun altitude
Rises 17:14:42 0° 14° (NNE) 3,710 5.2 -10.5°
Reaches altitude 10° 17:17:12 10° 11° (N) 2,756 4.6 -10.9°
Maximum altitude 17:23:15 59° 293° (WNW) 1,129 3.1 -11.8°
Drops below altitude 10° 17:29:15 10° 216° (SW) 2,737 5.7 -12.7°
Sets 17:31:44 0° 213° (SSW) 3,683 6.4 -13.1°
